Weather in Pleszew

Poland     51°53′37″N   17°47′19″E
temp.,
°C
wind,
m/s
gust,
m/s
humid.,
%
clouds,
%
prec.,
mm/h
press.,
hPa
HPBL,
m
17 may, tue
tue1723:00+13ese3661100 0.0 101987
02:00+13ese3555100 0.0 101996
05:00+12ene3657100 0.0 1019118
08:00+13ene6866100 0.0 1019379
11:00+14e6761100 0.0 1020583
14:00+15ene4553100 0.0 1021766
17:00+17ne554996 0.0 10211390
20:00+12ne611605 0.0 1023486
18 may, wed
wed1823:00+8ene51156100 0.0 1026336
02:00+4ene37695 0.0 1028125
05:00+2e33721 0.0 102939
08:00+8ese23520 0.0 1030325
11:00+13ese23370 0.0 1030843
14:00+16sse22325 0.0 10291216
17:00+17sse333458 0.0 10271166
20:00+13se33557 0.0 102720
19 may, thu
thu1923:00+9sse34525 0.0 102843
02:00+8sse46585 0.0 102784
05:00+7s486311 0.0 1026109
08:00+13ssw465799 0.0 1026218
11:00+20ssw454410 0.0 1025774
14:00+23ssw453725 0.0 10231222
17:00+23ssw4647100 0.0 1021977
20:00+17s4864100 0.0 1020130
20 may, fri
fri2023:00+14ssw41266100 0.0 1020215
02:00+13sw4864100 0.0 1019119
05:00+15sw486099 0.0 1018149
08:00+18w587091 0.0 1019311
11:00+23wnw566538 0.1 1018925
14:00+24wnw566398 0.5 10181298
17:00+24wnw3462100 0.3 10161075
20:00+20e3378100 0.6 101442
21 may, sat
sat2123:00+17ese5895100 13.4 1010429
02:00+14ne4697100 19.3 1011292
05:00+12nne129465 0.3 1012188
08:00+13w3109790 0.6 1013469
11:00+14wnw8128828 1.2 1014923
14:00+17wnw81264100 2.1 10151799
17:00+16wnw8137432 1.0 10161431
20:00+13wnw7128335 1.6 1017675